Regional Weather Roundup
Issued by NWS

Home | Current Version | Previous Version | Graphics & Text | Print | Product List | Glossary On
Versions: 1 2 3 4 5 6 7 8 9 10 11 12 13 14 15 16 17 18 19 20 21 22 23 24 25 26 27 28 29 30 31 32 33 34 35 36 37 38 39 40 41 42 43 44 45 46 47 48 49 50
402
ASUS44 KJAN 211003
RWRMS

MISSISSIPPI HOURLY WEATHER ROUNDUP
NATIONAL WEATHER SERVICE JACKSON MS
500 AM CDT SUN SEP 21 2014

NOTE: "FAIR: INDICATES FEW OR NO CLOUDS BELOW 12,000 FEET WITH NO
SIGNIFICANT WEATHER AND/OR OBSTRUCTIONS TO VISIBILITY.

MSZ001>002-007>008-010>013-018>021-025>028-034>036-211100-
NORTHWEST MISSISSIPPI

CITY           SKY/WX    TMP DP  RH WIND       PRES   REMARKS
CLARKSDALE     FAIR      68  68 100 CALM      30.01S
CLEVELAND      FAIR      69  69  98 CALM      30.00R
GREENWOOD      CLEAR     67  64  90 CALM      30.01R
GREENVILLE     CLEAR     69  66  90 CALM      30.00R
GRENADA        FAIR      64  64 100 CALM      30.01S
OLIVE BRANCH   CLEAR     66  66 100 SW6       30.00S
OXFORD         FAIR      64  64 100 CALM      30.02S
TUNICA         SUNNY     68  66  94 S3        30.00S FOG
$$

MSZ003>006-009-014>017-022>024-029>033-037>039-211100-
NORTHEAST MISSISSIPPI

CITY           SKY/WX    TMP DP  RH WIND       PRES   REMARKS
COLUMBUS AFB   CLEAR     64  64 100 SE5       30.01S
CORINTH          N/A     64  63  94 CALM      29.99S FOG
GOLDN TRIANGLE CLEAR     64  61  88 CALM      30.01F
STARKVILLE     FAIR      63  61  94 CALM      30.01S
TUPELO         CLEAR     67  65  93 CALM      30.01R
$$

MSZ040-058-211100-
CENTRAL MISSISSIPPI

CITY           SKY/WX    TMP DP  RH WIND       PRES   REMARKS
JACKSON INTL   CLEAR     66  64  93 CALM      30.02S
JACKSON HAWKNS CLEAR     68  65  90 CALM      30.02S
MERIDIAN KEY   CLEAR     63  61  93 CALM      30.02S
MERIDIAN NAS   CLEAR     63  61  93 NW5       30.03R
RAYMOND        HAZE      64  59  82 CALM      30.01S VSB<1/4
VICKSBURG      CLEAR     67  65  93 CALM      30.01R
$$

MSZ059>079-211100-
SOUTH MISSISSIPPI

CITY           SKY/WX    TMP DP  RH WIND       PRES   REMARKS
BROOKHAVEN     FAIR      64  64 100 CALM      30.04R FOG
COLUMBIA       FAIR      63  63 100 CALM      30.00S FOG
HATTIESBURG    CLEAR     64  63  96 NW3       30.02R FOG
MCCOMB         CLEAR     67  64  90 N3        30.02R
NATCHEZ        CLEAR     70  66  88 SE3       30.01S
PINE BELT      CLEAR    N/A N/A N/A CALM      30.02S
$$

MSZ080>082-211100-
COASTAL MISSISSIPPI

CITY           SKY/WX    TMP DP  RH WIND       PRES   REMARKS
BILOXI         CLEAR     71  66  83 E7        29.97F
PASCAGOULA     CLEAR     69  66  90 NE3       29.98F
GULFPORT       CLEAR     70  66  87 CALM      29.97S
$$



USA.gov is the U.S. government's official web portal to all federal, state and local government web resources and services.